{"data":{"norad_id":68421,"intl_designator":"2026-067F","name":"VIREON-2","alt_names":[],"object_type":"PAYLOAD","status":"ACTIVE","operator":null,"country":"UK","launch_date":"2026-03-30","launch_site_code":"AFWTR","launch_vehicle":null,"mission":null,"orbit_class":"UNKNOWN","rcs_meters":null,"size_class":null,"mass_kg":null,"dimensions":null,"purposes":[],"wikipedia_slug":null,"has_3d_model":false,"image_url":null,"decayed_at":null,"tle_current":{"epoch":"2026-05-24T20:33:53.144640Z","epoch_age_seconds":81381,"freshness":"FRESH","line1":"1 68421U 26067F   26144.85686510  .00003492  00000+0  17200-3 0  9998","line2":"2 68421  97.4504 103.6831 0001692  57.4295 302.7103 15.18621465  8401","mean_motion":15.18621465,"eccentricity":0.0001692,"inclination_deg":97.4504,"raan_deg":103.6831,"arg_perigee_deg":57.4295,"mean_anomaly_deg":302.7103,"bstar":0.000172,"rev_number":840,"period_min":94.822839870764,"perigee_km":508.84048294954,"apogee_km":511.1714305261,"semimajor_km":6888.1429567378,"source":"CELESTRAK","updated_at":"2026-05-25T13:38:07.811739Z"}}}